CDT,Max TemperatureF,Mean TemperatureF,Min TemperatureF,Max Dew PointF,MeanDew PointF,Min DewpointF,Max Humidity, Mean Humidity, Min Humidity, Max Sea Level PressureIn, Mean Sea Level PressureIn, Min Sea Level PressureIn, Max VisibilityMiles, Mean VisibilityMiles, Min VisibilityMiles, Max Wind SpeedMPH, Mean Wind SpeedMPH, Max Gust SpeedMPH,PrecipitationIn, CloudCover, Events, WindDirDegrees
2012-9-1,96,84,71,64,59,52,73,44,25,30.14,30.08,30.03,10,10,10,14,7,23,0.00,0,,174
2012-9-2,95,84,73,66,63,55,78,52,26,30.13,30.07,29.99,10,10,10,16,10,24,0.00,0,,167
2012-9-3,96,86,75,64,60,54,65,43,27,30.08,30.02,29.94,10,10,10,20,9,24,0.00,0,,171
2012-9-4,98,86,73,68,60,54,74,44,25,30.05,29.98,29.89,10,10,10,14,6,21,0.00,0,,174
2012-9-5,98,86,75,64,57,50,69,39,22,30.00,29.95,29.87,10,10,10,14,9,20,0.00,0,,170
2012-9-6,98,84,71,64,53,45,64,35,16,30.05,29.99,29.93,10,10,10,15,7,26,0.00,0,,183
2012-9-7,100,82,64,64,50,45,61,36,16,30.02,29.97,29.88,10,10,10,13,2,17,0.00,0,,173
2012-9-8,82,73,64,54,45,37,68,38,21,30.25,30.17,29.98,10,10,7,30,16,36,0.00,0,,31
2012-9-9,87,76,64,46,38,28,52,28,14,30.29,30.21,30.14,10,10,5,8,4,,0.00,0,,39
2012-9-10,91,73,55,39,36,32,47,26,14,30.20,30.13,30.04,10,10,10,13,5,17,0.00,0,,143
2012-9-11,91,76,60,55,46,36,64,35,20,30.14,30.07,30.01,10,10,10,18,8,24,0.00,0,,173
2012-9-12,93,81,69,64,56,45,78,46,26,30.09,30.04,29.97,10,10,10,18,9,28,0.00,0,,165
2012-9-13,78,69,60,66,62,54,100,81,44,30.32,30.16,30.04,10,9,1,21,8,34,1.15,4,Rain-Thunderstorm,64
2012-9-14,64,62,59,59,55,54,94,78,68,30.35,30.31,30.28,10,10,7,16,11,23,0.00,8,,18
2012-9-15,64,62,59,59,56,54,100,84,68,30.32,30.27,30.22,10,10,7,9,4,,0.09,3,Rain,356
2012-9-16,78,68,59,61,58,55,100,77,44,30.23,30.11,30.01,10,8,3,9,2,,0.01,1,,156
2012-9-17,86,74,62,63,58,46,100,68,25,30.04,29.97,29.90,10,10,4,9,5,,0.00,3,,187
2012-9-18,80,70,59,61,57,54,94,70,39,30.21,30.12,29.98,10,10,4,21,4,22,0.11,0,Rain-Thunderstorm,25
2012-9-19,86,70,55,61,56,50,100,65,29,30.22,30.16,30.11,10,10,10,15,3,17,0.00,0,,187
2012-9-20,87,72,57,61,55,48,94,57,25,30.17,30.10,30.04,10,10,10,16,5,23,0.00,0,,187
2012-9-21,89,72,55,54,49,43,82,46,20,30.11,30.06,30.00,10,10,10,13,6,17,0.00,0,,184
2012-9-22,91,71,51,54,46,36,94,49,14,30.21,30.14,30.08,10,10,10,14,3,21,0.00,0,,144
2012-9-23,87,70,53,63,52,48,88,54,27,30.27,30.21,30.16,10,10,10,15,4,22,0.00,0,,178
2012-9-24,87,76,66,63,57,50,83,53,27,30.22,30.14,30.03,10,10,7,20,9,26,0.00,0,,175
2012-9-25,87,78,68,63,58,54,83,54,35,30.07,30.01,29.93,10,10,10,25,14,31,0.00,0,,178
2012-9-26,86,78,69,64,62,55,83,61,43,30.07,30.01,29.97,10,10,10,18,12,26,0.00,2,,168
2012-9-27,87,78,69,68,63,55,88,66,35,30.15,30.09,30.03,10,10,7,20,10,25,0.01,4,Rain,157
2012-9-28,77,72,66,70,66,64,100,87,65,30.11,30.06,30.00,10,10,2,12,6,16,0.79,3,Rain-Thunderstorm,116
2012-9-29,69,66,62,66,63,61,100,90,73,30.07,29.97,29.90,10,8,1,24,9,32,2.72,7,Rain,13
2012-9-30,78,68,59,61,58,54,94,74,42,30.09,30.02,29.95,10,10,7,16,9,21,0.00,1,,359